TimeEST,TemperatureF,Dew PointF,Humidity,Sea Level PressureIn,VisibilityMPH,Wind Direction,Wind SpeedMPH,Gust SpeedMPH,PrecipitationIn,Events,Conditions,WindDirDegrees,DateUTC
12:54 AM,37.9,26.1,62,29.98,10.0,NW,4.6,-,N/A,,Overcast,310,2012-11-05 05:54:00
1:54 AM,37.9,24.1,57,29.98,10.0,NW,6.9,-,N/A,,Overcast,320,2012-11-05 06:54:00
2:54 AM,37.9,24.1,57,29.98,10.0,NW,6.9,-,N/A,,Overcast,320,2012-11-05 07:54:00
3:54 AM,37.9,23.0,55,29.98,10.0,NW,9.2,-,N/A,,Overcast,310,2012-11-05 08:54:00
4:54 AM,37.9,23.0,55,29.98,10.0,NNW,6.9,-,N/A,,Overcast,330,2012-11-05 09:54:00
5:54 AM,37.9,23.0,55,29.99,10.0,NNW,4.6,-,N/A,,Overcast,330,2012-11-05 10:54:00
6:54 AM,37.9,23.0,55,30.01,10.0,NNW,4.6,-,N/A,,Overcast,340,2012-11-05 11:54:00
7:54 AM,37.9,23.0,55,30.02,10.0,NNW,6.9,-,N/A,,Overcast,330,2012-11-05 12:54:00
8:54 AM,39.0,23.0,53,30.03,10.0,NW,9.2,-,N/A,,Overcast,310,2012-11-05 13:54:00
9:54 AM,39.9,21.9,49,30.03,10.0,NW,10.4,-,N/A,,Overcast,310,2012-11-05 14:54:00
10:54 AM,39.9,21.9,49,30.01,10.0,Calm,Calm,-,N/A,,Mostly Cloudy,0,2012-11-05 15:54:00
11:54 AM,42.1,21.9,45,30.00,10.0,NNW,6.9,-,N/A,,Scattered Clouds,330,2012-11-05 16:54:00
12:54 PM,44.1,19.9,38,29.99,10.0,NNW,12.7,20.7,N/A,,Partly Cloudy,340,2012-11-05 17:54:00
1:54 PM,43.0,19.9,40,29.99,10.0,WNW,11.5,-,N/A,,Partly Cloudy,290,2012-11-05 18:54:00
2:54 PM,42.1,19.9,41,30.01,10.0,NW,9.2,20.7,N/A,,Overcast,310,2012-11-05 19:54:00
3:54 PM,39.9,19.9,45,30.04,10.0,NW,9.2,19.6,N/A,,Mostly Cloudy,310,2012-11-05 20:54:00
4:54 PM,37.9,19.0,47,30.06,10.0,NW,10.4,-,N/A,,Mostly Cloudy,320,2012-11-05 21:54:00
5:54 PM,36.0,19.9,52,30.09,10.0,NNW,5.8,-,N/A,,Partly Cloudy,330,2012-11-05 22:54:00
6:54 PM,35.1,16.0,46,30.11,10.0,North,6.9,-,N/A,,Clear,350,2012-11-05 23:54:00
7:54 PM,34.0,16.0,48,30.13,10.0,NNW,4.6,-,N/A,,Clear,330,2012-11-06 00:54:00
8:54 PM,32.0,17.1,54,30.14,10.0,WNW,4.6,-,N/A,,Clear,300,2012-11-06 01:54:00
9:54 PM,32.0,17.1,54,30.15,10.0,NW,4.6,-,N/A,,Clear,310,2012-11-06 02:54:00
10:54 PM,32.0,17.1,54,30.15,10.0,WNW,5.8,-,N/A,,Clear,300,2012-11-06 03:54:00
11:54 PM,30.9,16.0,54,30.15,10.0,NW,4.6,-,N/A,,Clear,310,2012-11-06 04:54:00